VOZ210 YSSY-YBCG

Flight info

Callsign VOZ210
Flight time N/A
Altitude 31000
Route TESAT H252 OLSEM Y193 BANDA Y43 GREAV GOMOL
Aircraft B738/H-V/N

Departure

Time 2026-05-04 09:32
Airport Sydney Kingsford Smith International Airport (YSSY)

Arrival

Time N/A
Airport Gold Coast Airport (YBCG)
Time Latitude Longitude Altitude Speed Heading
2026-05-04 08:43 -33.93601 151.17752 10 ft 0 kts 303°
2026-05-04 09:11 -33.93612 151.17770 11 ft 3 kts 303°
2026-05-04 09:11 -33.93625 151.17795 11 ft 3 kts 303°
2026-05-04 09:12 -33.93644 151.17828 12 ft 3 kts 304°
2026-05-04 09:12 -33.93653 151.17845 12 ft 3 kts 304°
2026-05-04 09:14 -33.93680 151.17892 14 ft 1 kts 305°
2026-05-04 09:14 -33.93677 151.17888 14 ft 1 kts 305°
2026-05-04 09:14 -33.93672 151.17877 13 ft 2 kts 305°
2026-05-04 09:15 -33.93601 151.17752 10 ft 0 kts 303°
2026-05-04 09:17 -33.93727 151.17824 10 ft 0 kts 167°
2026-05-04 09:21 -33.93729 151.17824 10 ft 2 kts 169°
2026-05-04 09:21 -33.93767 151.17815 10 ft 16 kts 239°
2026-05-04 09:21 -33.93854 151.17772 9 ft 26 kts 180°
2026-05-04 09:22 -33.93883 151.17775 9 ft 0 kts 169°
2026-05-04 09:23 -33.93888 151.17776 10 ft 4 kts 169°
2026-05-04 09:23 -33.93953 151.17792 11 ft 22 kts 168°
2026-05-04 09:25 -33.95038 151.18018 23 ft 0 kts 169°
2026-05-04 09:26 -33.95044 151.18019 23 ft 0 kts 169°
2026-05-04 09:27 -33.95070 151.18028 22 ft 7 kts 154°
2026-05-04 09:27 -33.95099 151.18124 20 ft 15 kts 81°
2026-05-04 09:28 -33.95049 151.18405 18 ft 35 kts 78°
2026-05-04 09:28 -33.95093 151.18521 15 ft 25 kts 143°
2026-05-04 09:28 -33.95253 151.18684 12 ft 34 kts 150°
2026-05-04 09:28 -33.95568 151.18785 10 ft 37 kts 167°
2026-05-04 09:29 -33.95754 151.18834 8 ft 42 kts 167°
2026-05-04 09:29 -33.96040 151.18909 8 ft 42 kts 167°
2026-05-04 09:29 -33.96325 151.18982 8 ft 41 kts 168°
2026-05-04 09:29 -33.96701 151.19075 12 ft 40 kts 178°
2026-05-04 09:30 -33.96975 151.19109 12 ft 39 kts 168°
2026-05-04 09:30 -33.97101 151.19148 12 ft 0 kts 148°
2026-05-04 09:31 -33.97124 151.19189 12 ft 19 kts 103°
2026-05-04 09:31 -33.97075 151.19357 12 ft 23 kts 27°
2026-05-04 09:31 -33.96896 151.19336 12 ft 47 kts 349°
2026-05-04 09:31 -33.96184 151.19162 113 ft 149 kts 349°
2026-05-04 09:32 -33.94572 151.18707 1127 ft 201 kts 347°
2026-05-04 09:32 -33.93662 151.18451 1448 ft 196 kts 348°